Counter,date_time,lat,lon,DepthCm,BattVolts,DepthVolts
100001,2021-12-08T10:54:03,58.78172167,-93.80108,2.318,13.41,0.117
100002,2021-12-08T10:54:08,58.78172,-93.80106833,1.068,13.4,0.036
100003,2021-12-08T10:54:18,58.78173333,-93.80103167,5.386,13.39,0.313
100004,2021-12-08T10:55:07,58.78173667,-93.801025,5.386,13.36,0.313
100005,2021-12-08T10:58:09,58.78174667,-93.80106333,22.83,13.34,1.431
100006,2021-12-08T10:58:13,58.781745,-93.80106333,26.07,13.3,1.639
100007,2021-12-08T11:00:10,58.78174,-93.80106,4.705,13.24,0.27
100008,2021-12-08T11:00:37,58.78173833,-93.80105167,6.182,13.23,0.364
100009,2021-12-08T11:03:09,58.78185667,-93.80090333,5.046,13.17,0.291
100010,2021-12-08T11:03:16,58.781865,-93.80089,5.5,13.16,0.321
100011,2021-12-08T11:03:21,58.781875,-93.800875,8.8,13.16,0.532
100012,2021-12-08T11:03:25,58.781885,-93.80085833,9.25,13.16,0.561
100013,2021-12-08T11:03:30,58.781895,-93.80084,6.182,13.15,0.364
100014,2021-12-08T11:03:35,58.781905,-93.80081833,8.57,13.15,0.517
100015,2021-12-08T11:03:41,58.78191333,-93.80080167,4.818,13.15,0.277
100016,2021-12-08T11:03:46,58.78192167,-93.80078833,5.33,13.15,0.31
100017,2021-12-08T11:03:56,58.78193333,-93.800765,4.136,13.15,0.233
100018,2021-12-08T11:04:01,58.78194,-93.80075333,4.989,13.15,0.288
100019,2021-12-08T11:04:06,58.78194833,-93.80073833,5.273,13.14,0.306
100020,2021-12-08T11:04:11,58.781955,-93.800725,3.909,13.14,0.219
100021,2021-12-08T11:04:16,58.78196,-93.80071333,7.262,13.14,0.433
100022,2021-12-08T11:04:20,58.781965,-93.80069833,10.95,13.14,0.67
100023,2021-12-08T11:04:25,58.78197333,-93.800685,10.84,13.14,0.663
100024,2021-12-08T11:04:30,58.78197833,-93.80066833,6.864,13.14,0.408
100025,2021-12-08T11:04:35,58.781985,-93.80065667,5.614,13.14,0.328
100026,2021-12-08T11:04:40,58.78199333,-93.80064167,14.76,13.13,0.914
100027,2021-12-08T11:04:46,58.78199667,-93.80062667,5.727,13.13,0.335
100028,2021-12-08T11:04:50,58.782005,-93.80061667,5.5,13.13,0.321
100029,2021-12-08T11:04:55,58.78201333,-93.80060167,5.955,13.13,0.35
100030,2021-12-08T11:05:00,58.78202333,-93.80058833,6.409,13.12,0.379
100031,2021-12-08T11:05:05,58.78203333,-93.80057167,6.068,13.12,0.357
100032,2021-12-08T11:05:10,58.78204333,-93.800555,5.273,13.12,0.306
100033,2021-12-08T11:05:15,58.78205333,-93.80053167,5.727,13.12,0.335
100034,2021-12-08T11:05:21,58.78206,-93.80051333,4.705,13.12,0.27
100035,2021-12-08T11:05:27,58.78206833,-93.80049833,8.11,13.12,0.488
100036,2021-12-08T11:05:32,58.782075,-93.80047833,4.705,13.12,0.27
100037,2021-12-08T11:05:38,58.78208667,-93.80046333,7.659,13.11,0.459
100038,2021-12-08T11:05:43,58.782095,-93.800445,7.546,13.12,0.452
100039,2021-12-08T11:05:48,58.78210167,-93.80043333,5.557,13.11,0.324
100040,2021-12-08T11:05:52,58.78211167,-93.80041833,6.296,13.1,0.372
100041,2021-12-08T11:05:58,58.78212,-93.80040333,9.19,13.1,0.557
100042,2021-12-08T11:06:02,58.78212833,-93.80039,7.148,13.1,0.426
100043,2021-12-08T11:06:07,58.782135,-93.80037667,7.318,13.1,0.437
100044,2021-12-08T11:06:38,58.78215167,-93.800355,3.341,13.09,0.182
100045,2021-12-08T11:06:42,58.78215833,-93.80033833,6.182,13.1,0.364
100046,2021-12-08T11:06:46,58.78216667,-93.80032333,4.591,13.09,0.262
100047,2021-12-08T11:06:50,58.78217667,-93.80030667,8.23,13.09,0.495
100048,2021-12-08T11:06:54,58.78218667,-93.80028333,6.523,13.09,0.386
100049,2021-12-08T11:06:58,58.782195,-93.800265,8.11,13.09,0.488
100050,2021-12-08T11:07:01,58.782205,-93.80024667,4.477,13.09,0.255
100051,2021-12-08T11:07:07,58.78221333,-93.80022333,5.614,13.09,0.328
100052,2021-12-08T11:07:10,58.78222333,-93.80021,6.296,13.09,0.372
100053,2021-12-08T11:07:14,58.78223167,-93.80019833,9.7,13.09,0.59
100054,2021-12-08T11:07:19,58.78224167,-93.80017,5.671,13.08,0.331
100055,2021-12-08T11:07:23,58.78225,-93.80015333,5.046,13.08,0.291
100056,2021-12-08T11:07:27,58.78225833,-93.800135,10.56,13.08,0.645
100057,2021-12-08T11:07:31,58.782265,-93.80012167,5.273,13.08,0.306
100058,2021-12-08T11:07:37,58.78227333,-93.80010333,6.012,13.08,0.353
100059,2021-12-08T11:07:40,58.78227667,-93.80009167,9.14,13.07,0.554
100060,2021-12-08T11:07:44,58.78228667,-93.800065,5.671,13.08,0.331
100061,2021-12-08T11:07:49,58.7823,-93.80004,8.34,13.08,0.503
100062,2021-12-08T11:07:54,58.78231,-93.80002,5.273,13.07,0.306
100063,2021-12-08T11:07:58,58.78232,-93.80000333,6.239,13.07,0.368
100064,2021-12-08T11:08:04,58.78233,-93.79998667,9.88,13.07,0.601
100065,2021-12-08T11:08:07,58.78234,-93.799965,8.17,13.07,0.492
100066,2021-12-08T11:08:18,58.78234667,-93.79994833,8.4,13.07,0.506
100067,2021-12-08T11:08:24,58.78235833,-93.799925,11.18,13.07,0.685
100068,2021-12-08T11:08:29,58.78236833,-93.79990333,6.523,13.07,0.386
100069,2021-12-08T11:08:34,58.78237833,-93.79988167,5.046,13.06,0.291
100070,2021-12-08T11:08:38,58.78238833,-93.79986667,3.0,13.06,0.16
100071,2021-12-08T11:08:42,58.78239833,-93.79984667,5.273,13.06,0.306
100072,2021-12-08T11:08:45,58.78240833,-93.79982833,6.409,13.06,0.379
100073,2021-12-08T11:08:49,58.78241833,-93.79981167,5.784,13.06,0.339
100074,2021-12-08T11:08:53,58.78243,-93.79978667,5.841,13.06,0.342
100075,2021-12-08T11:08:57,58.78243667,-93.799765,7.091,13.06,0.423
100076,2021-12-08T11:09:00,58.78245,-93.79974833,5.784,13.06,0.339
100077,2021-12-08T11:09:05,58.78246,-93.79972667,6.637,13.06,0.393
100078,2021-12-08T11:09:09,58.78246833,-93.79970833,6.296,13.06,0.372
100079,2021-12-08T11:09:26,58.78248,-93.79969,4.932,13.05,0.284
100080,2021-12-08T11:09:30,58.78248833,-93.79966833,7.262,13.05,0.433
100081,2021-12-08T11:09:33,58.782495,-93.799655,5.046,13.04,0.291
100082,2021-12-08T11:09:37,58.78250667,-93.79963333,6.296,13.04,0.372
100083,2021-12-08T11:09:40,58.782515,-93.79962333,6.409,13.04,0.379
100084,2021-12-08T11:09:43,58.78252667,-93.79960167,6.523,13.04,0.386
100085,2021-12-08T11:09:47,58.78253667,-93.79959167,4.534,13.04,0.259
100086,2021-12-08T11:09:50,58.78254833,-93.79957333,5.614,13.04,0.328
100087,2021-12-08T11:09:54,58.78255833,-93.79955667,6.068,13.04,0.357
100088,2021-12-08T11:09:58,58.78256833,-93.79954,6.068,13.04,0.357
100089,2021-12-08T11:10:01,58.78257667,-93.79953,5.841,13.04,0.342
100090,2021-12-08T11:10:05,58.78259,-93.79951,6.182,13.03,0.364
100091,2021-12-08T11:10:08,58.78259833,-93.7995,9.42,13.03,0.572
100092,2021-12-08T11:10:11,58.78260667,-93.79948667,7.716,13.03,0.463
100093,2021-12-08T11:10:15,58.78262,-93.79946833,7.83,13.03,0.47
100094,2021-12-08T11:10:19,58.78263,-93.79945333,5.671,13.03,0.331
100095,2021-12-08T11:10:23,58.78264,-93.79944,4.25,13.03,0.24
100096,2021-12-08T11:10:27,58.78265333,-93.79942333,4.023,13.03,0.226
100097,2021-12-08T11:10:30,58.78266333,-93.79940667,7.148,13.03,0.426
100098,2021-12-08T11:10:34,58.782675,-93.79939,5.727,13.03,0.335
100099,2021-12-08T11:10:39,58.78268333,-93.79937167,6.807,13.03,0.404
100100,2021-12-08T11:10:43,58.78268833,-93.799355,6.068,13.02,0.357
100101,2021-12-08T11:10:46,58.782695,-93.79934667,9.02,13.02,0.546
100102,2021-12-08T11:10:49,58.78270167,-93.799335,11.18,13.03,0.685
100103,2021-12-08T11:10:53,58.78271167,-93.79933333,13.63,13.02,0.841
100104,2021-12-08T11:10:56,58.78271167,-93.799345,4.875,13.02,0.28
100105,2021-12-08T11:10:59,58.78270833,-93.799355,5.159,13.02,0.299
100106,2021-12-08T11:11:03,58.7827,-93.799375,4.591,13.03,0.262
100107,2021-12-08T11:11:06,58.78269333,-93.79938833,5.955,13.02,0.35
100108,2021-12-08T11:11:10,58.782685,-93.799405,5.955,13.02,0.35
100109,2021-12-08T11:11:14,58.78267833,-93.79942333,6.012,13.02,0.353
100110,2021-12-08T11:11:18,58.78267,-93.79943333,7.205,13.02,0.43
100111,2021-12-08T11:11:22,58.78266167,-93.79945333,6.977,13.02,0.415
100112,2021-12-08T11:11:36,58.782655,-93.79946167,4.761,13.02,0.273
100113,2021-12-08T11:11:40,58.782645,-93.79948,7.432,13.02,0.444
100114,2021-12-08T11:11:44,58.78263667,-93.79949667,6.807,13.01,0.404
100115,2021-12-08T11:11:48,58.78262833,-93.79951333,4.591,13.01,0.262
100116,2021-12-08T11:11:52,58.78261667,-93.79953333,4.364,13.01,0.248
100117,2021-12-08T11:11:56,58.78261,-93.799545,4.25,13.01,0.24
100118,2021-12-08T11:12:00,58.7826,-93.79955833,6.125,13.01,0.361
100119,2021-12-08T11:12:04,58.78259,-93.79957667,5.102,13.01,0.295
100120,2021-12-08T11:12:08,58.78258167,-93.79959167,7.546,13.01,0.452
100121,2021-12-08T11:12:12,58.78257167,-93.79960833,6.182,13.01,0.364
100122,2021-12-08T11:12:16,58.78256333,-93.79963,5.273,13.01,0.306
100123,2021-12-08T11:12:21,58.78255167,-93.799645,6.75,13.0,0.401
100124,2021-12-08T11:12:25,58.78254,-93.79966333,5.614,12.99,0.328
100125,2021-12-08T11:12:29,58.78252833,-93.79968167,4.932,12.99,0.284
100126,2021-12-08T11:12:35,58.782515,-93.799705,5.216,13.01,0.302
100127,2021-12-08T11:12:44,58.782505,-93.799725,5.216,13.0,0.302
100128,2021-12-08T11:12:49,58.78249333,-93.79974667,6.012,12.99,0.353
100129,2021-12-08T11:12:53,58.782485,-93.79976333,5.273,12.99,0.306
100130,2021-12-08T11:12:57,58.78247833,-93.79977667,6.068,12.99,0.357
100131,2021-12-08T11:12:59,58.782475,-93.799785,6.693,12.99,0.397
100132,2021-12-08T11:13:03,58.782465,-93.79980333,9.36,12.99,0.568
100133,2021-12-08T11:13:07,58.782455,-93.79982167,5.159,13.0,0.299
100134,2021-12-08T11:13:12,58.78244667,-93.79983833,5.102,12.99,0.295
100135,2021-12-08T11:13:16,58.78243833,-93.79985333,9.53,12.99,0.579
100136,2021-12-08T11:13:20,58.78242833,-93.79987,5.898,12.99,0.346
100137,2021-12-08T11:13:23,58.78242167,-93.79988333,6.125,12.98,0.361
100138,2021-12-08T11:13:24,58.78241833,-93.79989,6.068,12.99,0.357
100139,2021-12-08T11:13:29,58.78240833,-93.79990833,6.409,12.99,0.379
100140,2021-12-08T11:13:35,58.78239833,-93.79993,6.75,12.98,0.401
100141,2021-12-08T11:13:41,58.78238833,-93.79994833,9.53,12.98,0.579
100142,2021-12-08T11:13:44,58.78238333,-93.79996,9.99,12.98,0.608
100143,2021-12-08T11:13:45,58.78238,-93.799965,8.45,12.98,0.51
100144,2021-12-08T11:13:51,58.78237,-93.79999,7.773,12.98,0.466
100145,2021-12-08T11:13:56,58.78236,-93.80000833,6.693,12.98,0.397
100146,2021-12-08T11:14:01,58.78235167,-93.80002833,5.955,12.98,0.35
100147,2021-12-08T11:14:04,58.78234833,-93.80003833,6.409,12.98,0.379
100148,2021-12-08T11:14:06,58.782345,-93.80005,4.818,12.98,0.277
100149,2021-12-08T11:14:09,58.78234167,-93.80005833,6.239,12.98,0.368
100150,2021-12-08T11:14:16,58.78232833,-93.80008667,4.818,12.98,0.277
100151,2021-12-08T11:14:21,58.78231833,-93.80010667,7.546,12.97,0.452
100152,2021-12-08T11:14:25,58.78231167,-93.800125,7.943,12.98,0.477
100153,2021-12-08T11:14:28,58.78230833,-93.800135,7.432,12.97,0.444
100154,2021-12-08T11:14:34,58.78229,-93.80016833,4.818,12.97,0.277
100155,2021-12-08T11:14:40,58.78228167,-93.80018667,4.705,12.97,0.27
100156,2021-12-08T11:14:45,58.78227,-93.80020667,6.068,12.97,0.357
100157,2021-12-08T11:14:49,58.78226,-93.80022333,12.6,12.97,0.776
100158,2021-12-08T11:14:54,58.78225167,-93.800245,5.046,12.96,0.291
100159,2021-12-08T11:14:58,58.782245,-93.80026,7.091,12.97,0.423
100160,2021-12-08T11:15:03,58.782235,-93.80028,5.046,12.97,0.291
100161,2021-12-08T11:15:06,58.78223167,-93.80028833,7.659,12.96,0.459
100162,2021-12-08T11:15:10,58.78222167,-93.800305,7.262,12.96,0.433
100163,2021-12-08T11:15:15,58.78220667,-93.800325,6.75,12.97,0.401
100164,2021-12-08T11:15:20,58.78219667,-93.800345,6.466,12.96,0.382
100165,2021-12-08T11:15:25,58.78219,-93.80036667,5.102,12.96,0.295
100166,2021-12-08T11:15:30,58.78218167,-93.80038,6.182,12.96,0.364
100167,2021-12-08T11:15:35,58.78217333,-93.800395,5.273,12.96,0.306
100168,2021-12-08T11:15:39,58.78216333,-93.80041333,9.02,12.95,0.546
100169,2021-12-08T11:15:44,58.78215,-93.80043667,9.82,12.96,0.597
100170,2021-12-08T11:15:48,58.78214,-93.800455,7.375,12.96,0.441
100171,2021-12-08T11:15:52,58.78213,-93.80047333,8.34,12.96,0.503
100172,2021-12-08T11:15:55,58.782125,-93.80048333,6.523,12.96,0.386
100173,2021-12-08T11:16:00,58.78211167,-93.80051,7.091,12.96,0.423
100174,2021-12-08T11:16:03,58.78210667,-93.80052167,8.34,12.95,0.503
100175,2021-12-08T11:16:08,58.78209333,-93.80054833,5.614,12.96,0.328
100176,2021-12-08T11:16:12,58.78208833,-93.80056333,5.5,12.94,0.321
100177,2021-12-08T11:16:16,58.78208167,-93.80057667,6.125,12.95,0.361
100178,2021-12-08T11:16:21,58.78207333,-93.80059,7.318,12.94,0.437
100179,2021-12-08T11:16:28,58.782065,-93.80060667,4.875,12.95,0.28
100180,2021-12-08T11:16:32,58.78205667,-93.800625,3.966,12.94,0.222
100181,2021-12-08T11:16:37,58.78204667,-93.80064333,4.591,12.94,0.262
100182,2021-12-08T11:16:40,58.78204,-93.80065167,10.16,12.94,0.619
100183,2021-12-08T11:16:45,58.78202833,-93.80067667,13.34,12.94,0.823
100184,2021-12-08T11:16:50,58.78202167,-93.80069,10.22,12.94,0.623
100185,2021-12-08T11:16:53,58.782015,-93.80069833,11.07,12.94,0.677
100186,2021-12-08T11:16:58,58.78200333,-93.80072,9.99,12.94,0.608
100187,2021-12-08T11:17:03,58.781995,-93.80073667,8.45,12.93,0.51
100188,2021-12-08T11:17:08,58.78198667,-93.80075333,5.955,12.94,0.35
100189,2021-12-08T11:17:14,58.78198,-93.80077167,5.102,12.94,0.295
100190,2021-12-08T11:17:18,58.78197167,-93.80078667,5.784,12.94,0.339
100191,2021-12-08T11:17:22,58.78196333,-93.80080167,5.102,12.93,0.295
100192,2021-12-08T11:17:26,58.78195167,-93.80082167,6.921,12.93,0.412
100193,2021-12-08T11:17:31,58.78194333,-93.80083667,4.591,12.94,0.262
100194,2021-12-08T11:17:35,58.781935,-93.80085,9.53,12.93,0.579
100195,2021-12-08T11:17:40,58.78192667,-93.80086833,8.63,12.93,0.521
100196,2021-12-08T11:17:45,58.78191667,-93.800885,9.99,12.93,0.608
100197,2021-12-08T11:17:50,58.781905,-93.8009,7.091,12.93,0.423
100198,2021-12-08T11:17:54,58.78190167,-93.800905,4.989,12.93,0.288
100199,2021-12-08T11:17:56,58.78189333,-93.80091667,5.046,12.93,0.291
100200,2021-12-08T11:18:01,58.78188333,-93.80093333,6.352,12.92,0.375
100201,2021-12-08T11:18:06,58.78187,-93.80095667,6.296,12.92,0.372
100202,2021-12-08T11:18:12,58.781855,-93.80099333,6.466,12.93,0.382
100203,2021-12-08T11:18:18,58.78184333,-93.80102,7.546,12.92,0.452
100204,2021-12-08T11:19:12,58.78187667,-93.801005,5.841,12.92,0.342
100205,2021-12-08T11:19:17,58.781885,-93.801015,8.06,12.92,0.484
100206,2021-12-08T11:19:21,58.78189333,-93.80103333,6.921,12.92,0.412
100207,2021-12-08T11:19:25,58.78190333,-93.80104833,7.659,12.91,0.459
100208,2021-12-08T11:19:29,58.781915,-93.801065,5.33,12.91,0.31
100209,2021-12-08T11:19:32,58.78192833,-93.80108667,8.0,12.91,0.481
100210,2021-12-08T11:19:37,58.78194,-93.80110833,7.602,12.91,0.455
100211,2021-12-08T11:19:40,58.78194833,-93.80112667,4.364,12.91,0.248
100212,2021-12-08T11:19:45,58.78196167,-93.80115,2.773,12.91,0.146
100213,2021-12-08T11:19:49,58.78197333,-93.80117,7.943,12.91,0.477
100214,2021-12-08T11:19:53,58.78198333,-93.80119667,6.693,12.91,0.397
100215,2021-12-08T11:19:58,58.78199333,-93.80122,5.614,12.91,0.328
100216,2021-12-08T11:20:02,58.78200167,-93.80124,5.557,12.91,0.324
100217,2021-12-08T11:20:06,58.78201167,-93.80125833,4.08,12.91,0.229
100218,2021-12-08T11:20:11,58.78202167,-93.80127833,19.48,12.89,1.217
100219,2021-12-08T11:20:18,58.78203333,-93.80129333,4.761,12.9,0.273
100220,2021-12-08T11:20:22,58.78204333,-93.80131833,4.875,12.9,0.28
100221,2021-12-08T11:20:27,58.782055,-93.80134667,5.5,12.9,0.321
100222,2021-12-08T11:20:31,58.78206,-93.80136833,6.864,12.89,0.408
100223,2021-12-08T11:20:45,58.78206333,-93.80138833,6.807,12.9,0.404
100224,2021-12-08T11:20:50,58.78207167,-93.80141,7.148,12.9,0.426
100225,2021-12-08T11:21:20,58.78207667,-93.801445,6.182,12.89,0.364
100226,2021-12-08T11:21:32,58.78208333,-93.80146333,4.875,12.89,0.28
100227,2021-12-08T11:21:38,58.78209167,-93.801495,7.773,12.88,0.466
100228,2021-12-08T11:21:43,58.7821,-93.80152833,5.557,12.88,0.324
100229,2021-12-08T11:21:55,58.78211,-93.80155667,6.296,12.88,0.372
100230,2021-12-08T11:22:00,58.78211667,-93.80157833,6.409,12.88,0.379
100231,2021-12-08T11:22:07,58.782125,-93.80159833,7.375,12.88,0.441
100232,2021-12-08T11:22:12,58.78213167,-93.801625,6.523,12.88,0.386
100233,2021-12-08T11:22:16,58.78214,-93.80165167,7.943,12.88,0.477
100234,2021-12-08T11:22:21,58.782145,-93.80167333,6.523,12.88,0.386
100235,2021-12-08T11:22:24,58.78215167,-93.801695,7.602,12.88,0.455
100236,2021-12-08T11:22:28,58.78216167,-93.80171833,7.091,12.88,0.423
100237,2021-12-08T11:22:31,58.78217,-93.80174333,4.591,12.88,0.262
100238,2021-12-08T11:22:44,58.78217667,-93.801765,5.33,12.88,0.31
100239,2021-12-08T11:22:50,58.78218833,-93.801795,6.239,12.88,0.368
100240,2021-12-08T11:22:54,58.78219667,-93.80182,7.091,12.87,0.423
100241,2021-12-08T11:22:58,58.78220333,-93.80184667,7.262,12.87,0.433
100242,2021-12-08T11:23:02,58.782215,-93.80188167,7.944,12.87,0.477
100243,2021-12-08T11:23:06,58.78222,-93.80189833,8.51,12.87,0.514
100244,2021-12-08T11:23:10,58.78222667,-93.80192,7.603,12.87,0.455
100245,2021-12-08T11:23:14,58.78223333,-93.80194333,8.4,12.87,0.506
100246,2021-12-08T11:23:18,58.78224,-93.80196333,5.614,12.87,0.328
100247,2021-12-08T11:23:22,58.78225,-93.80198833,8.51,12.87,0.514
100248,2021-12-08T11:23:26,58.78225833,-93.80201167,8.45,12.87,0.51
100249,2021-12-08T11:23:33,58.78226833,-93.80203833,7.773,12.86,0.466
100250,2021-12-08T11:23:39,58.78227667,-93.80206333,11.47,12.86,0.703
100251,2021-12-08T11:23:44,58.782285,-93.80208833,7.318,12.87,0.437
100252,2021-12-08T11:23:48,58.78229333,-93.80211,7.489,12.87,0.448
100253,2021-12-08T11:23:52,58.7823,-93.80212833,7.091,12.86,0.423
100254,2021-12-08T11:23:59,58.78230833,-93.80215,7.091,12.86,0.423
100255,2021-12-08T11:24:04,58.782315,-93.80216833,7.887,12.86,0.474
100256,2021-12-08T11:24:07,58.78231833,-93.80218333,5.557,12.86,0.324
100257,2021-12-08T11:24:12,58.78232833,-93.80221,9.14,12.86,0.554
100258,2021-12-08T11:24:17,58.782335,-93.802235,5.727,12.86,0.335
100259,2021-12-08T11:24:21,58.78234333,-93.80225667,8.8,12.86,0.532
100260,2021-12-08T11:24:23,58.78235,-93.80227,10.73,12.86,0.656
100261,2021-12-08T11:24:29,58.78236,-93.80230167,6.58,12.86,0.39
100262,2021-12-08T11:24:35,58.78237,-93.80232333,7.034,12.86,0.419
100263,2021-12-08T11:24:40,58.782375,-93.80234333,6.296,12.85,0.372
100264,2021-12-08T11:24:44,58.78238167,-93.80236333,6.523,12.85,0.386
100265,2021-12-08T11:24:49,58.78239,-93.802385,5.387,12.85,0.313
100266,2021-12-08T11:24:53,58.78239833,-93.80240833,6.068,12.86,0.357
100267,2021-12-08T11:24:58,58.78240833,-93.80243333,6.068,12.85,0.357
100268,2021-12-08T11:25:02,58.78241333,-93.80245333,8.0,12.85,0.481
100269,2021-12-08T11:25:07,58.78242167,-93.80247667,7.546,12.85,0.452
100270,2021-12-08T11:25:28,58.78243,-93.80250333,3.739,12.85,0.208
100271,2021-12-08T11:25:33,58.78244,-93.80252833,6.523,12.85,0.386
100272,2021-12-08T11:25:38,58.782445,-93.80255,7.432,12.84,0.444
100273,2021-12-08T11:25:43,58.78245167,-93.80256667,5.443,12.85,0.317
100274,2021-12-08T11:25:48,58.78246,-93.80259167,7.944,12.84,0.477
100275,2021-12-08T11:25:52,58.78246667,-93.80261333,7.603,12.85,0.455
100276,2021-12-08T11:25:56,58.78247167,-93.802635,7.262,12.85,0.433
100277,2021-12-08T11:26:01,58.78247667,-93.80266167,5.33,12.84,0.31
100278,2021-12-08T11:26:15,58.782485,-93.80268,5.216,12.84,0.302
100279,2021-12-08T11:26:20,58.78249167,-93.80270667,5.5,12.84,0.321
100280,2021-12-08T11:26:24,58.78249833,-93.802725,4.932,12.83,0.284
100281,2021-12-08T11:26:33,58.782505,-93.802745,3.284,12.83,0.178
100282,2021-12-08T11:26:41,58.78251333,-93.80276333,5.501,12.84,0.321
100283,2021-12-08T11:26:48,58.782515,-93.80278333,9.36,12.84,0.568
100284,2021-12-08T11:26:52,58.78252167,-93.80280333,4.137,12.83,0.233
100285,2021-12-08T11:26:56,58.78253167,-93.80283,5.046,12.83,0.291
100286,2021-12-08T11:27:00,58.78253833,-93.80285,5.273,12.84,0.306
100287,2021-12-08T11:27:04,58.78254667,-93.80287333,4.421,12.83,0.251
100288,2021-12-08T11:27:08,58.78255167,-93.80289167,9.59,12.84,0.583
100289,2021-12-08T11:27:13,58.78256,-93.80291333,5.898,12.83,0.346
100290,2021-12-08T11:27:17,58.78256833,-93.80293333,4.364,12.83,0.248
100291,2021-12-08T11:27:21,58.782575,-93.80295,5.16,12.83,0.299
100292,2021-12-08T11:27:26,58.78258167,-93.80297,5.671,12.83,0.331
100293,2021-12-08T11:27:30,58.78258667,-93.80299333,5.614,12.82,0.328
100294,2021-12-08T11:27:35,58.782595,-93.80301667,7.376,12.82,0.441
100295,2021-12-08T11:27:39,58.78259833,-93.80303,8.34,12.83,0.503
100296,2021-12-08T11:27:44,58.78260833,-93.80306,5.33,12.83,0.31
100297,2021-12-08T11:27:49,58.782615,-93.80308167,5.501,12.82,0.321
100298,2021-12-08T11:27:53,58.78262333,-93.8031,5.216,12.83,0.302
100299,2021-12-08T11:27:56,58.78262667,-93.80311333,9.02,12.82,0.546
100300,2021-12-08T11:28:00,58.78263333,-93.80314,6.012,12.83,0.353
100301,2021-12-08T11:28:04,58.78264167,-93.803165,6.808,12.82,0.404
100302,2021-12-08T11:28:08,58.78265,-93.80319167,5.955,12.82,0.35
100303,2021-12-08T11:28:11,58.78265833,-93.803215,5.103,12.82,0.295
100304,2021-12-08T11:28:17,58.78266833,-93.80323333,5.842,12.82,0.342
100305,2021-12-08T11:28:20,58.78267333,-93.803255,5.671,12.82,0.331
100306,2021-12-08T11:28:26,58.78266833,-93.80328167,5.046,12.82,0.291
100307,2021-12-08T11:28:29,58.78265833,-93.80326833,7.546,12.82,0.452
100308,2021-12-08T11:28:34,58.78265167,-93.80325333,7.717,12.82,0.463
100309,2021-12-08T11:28:38,58.78264667,-93.803235,7.66,12.82,0.459
100310,2021-12-08T11:28:42,58.78263833,-93.80321833,6.808,12.82,0.404
100311,2021-12-08T11:28:46,58.78263,-93.80319833,9.42,12.81,0.572
100312,2021-12-08T11:28:50,58.78262,-93.80317667,6.41,12.82,0.379
100313,2021-12-08T11:28:53,58.78261667,-93.80316333,3.966,12.82,0.222
100314,2021-12-08T11:28:57,58.78260833,-93.80314167,4.08,12.81,0.229
100315,2021-12-08T11:29:02,58.7826,-93.803125,7.376,12.82,0.441
100316,2021-12-08T11:29:07,58.78259333,-93.80311,7.831,12.82,0.47
100317,2021-12-08T11:29:11,58.78258333,-93.803085,6.921,12.81,0.412
100318,2021-12-08T11:29:15,58.782575,-93.80306,7.262,12.82,0.433
100319,2021-12-08T11:29:18,58.78257,-93.803045,8.74,12.81,0.528
100320,2021-12-08T11:29:23,58.78256,-93.80301833,7.035,12.81,0.419
100321,2021-12-08T11:29:27,58.78255,-93.80299833,6.012,12.81,0.353
100322,2021-12-08T11:29:31,58.782545,-93.80297833,7.262,12.81,0.433
100323,2021-12-08T11:29:35,58.78254,-93.802955,8.85,12.81,0.535
100324,2021-12-08T11:29:39,58.78253,-93.80293167,6.751,12.81,0.401
100325,2021-12-08T11:29:43,58.78252333,-93.80290833,7.66,12.81,0.459
100326,2021-12-08T11:29:47,58.78251667,-93.80288333,3.739,12.81,0.208
100327,2021-12-08T11:29:50,58.78251,-93.80286667,5.842,12.8,0.342
100328,2021-12-08T11:29:54,58.78250333,-93.80284167,4.137,12.8,0.233
100329,2021-12-08T11:29:58,58.78249167,-93.80282167,5.614,12.81,0.328
100330,2021-12-08T11:30:02,58.78248667,-93.80279833,6.581,12.81,0.39
100331,2021-12-08T11:30:07,58.78247833,-93.80277667,6.183,12.8,0.364
100332,2021-12-08T11:30:13,58.78246833,-93.80274833,7.092,12.81,0.423
100333,2021-12-08T11:30:20,58.78246333,-93.802735,7.547,12.8,0.452
100334,2021-12-08T11:30:24,58.78245167,-93.802715,6.978,12.8,0.415
100335,2021-12-08T11:30:29,58.78244333,-93.80269167,6.183,12.8,0.364
100336,2021-12-08T11:30:33,58.78243667,-93.80267167,6.296,12.8,0.372
100337,2021-12-08T11:30:36,58.78243167,-93.80265833,8.63,12.8,0.521
100338,2021-12-08T11:30:41,58.782425,-93.80262833,4.648,12.8,0.266
100339,2021-12-08T11:30:46,58.782415,-93.80260667,7.149,12.8,0.426
100340,2021-12-08T11:30:48,58.78241,-93.80258833,5.956,12.8,0.35
100341,2021-12-08T11:30:53,58.78240167,-93.80256167,6.353,12.8,0.375
100342,2021-12-08T11:30:57,58.782395,-93.80254333,13.51,12.8,0.834
100343,2021-12-08T11:31:01,58.78238833,-93.80252167,10.16,12.8,0.619
100344,2021-12-08T11:31:05,58.78238,-93.80249167,6.865,12.8,0.408
100345,2021-12-08T11:31:09,58.78237167,-93.80246667,5.899,12.8,0.346
100346,2021-12-08T11:31:13,58.78236,-93.802445,7.035,12.79,0.419
100347,2021-12-08T11:31:17,58.782355,-93.80242167,5.387,12.8,0.313
100348,2021-12-08T11:31:21,58.78235,-93.80239667,4.989,12.8,0.288
100349,2021-12-08T11:31:25,58.78234,-93.80237,4.251,12.79,0.24
100350,2021-12-08T11:31:32,58.78233333,-93.802345,4.762,12.8,0.273
100351,2021-12-08T11:31:37,58.782325,-93.80232333,5.16,12.8,0.299
100352,2021-12-08T11:31:42,58.78232,-93.80230167,5.444,12.79,0.317
100353,2021-12-08T11:31:49,58.78230833,-93.802275,5.16,12.79,0.299